Location: Asheville, NC
(35.6000°N, 82.5500°W)
Time: 16:22:26
(UTC-05:00)

UWE-3 - Pass Details

Date: 15 February 2018
Orbit: 586 x 684 km, 97.6° (Epoch: 21 February)

Event Time Altitude Azimuth Distance (km) Brightness Sun altitude
Rises 18:54:58 0° 153° (SSE) 3,025 ? -9.3°
Reaches altitude 10° 18:57:15 10° 147° (SSE) 2,117 ? -9.8°
Maximum altitude 19:01:43 48° 74° (ENE) 893 ? -10.7°
Drops below altitude 10° 19:06:11 10° 1° (N) 2,123 ? -11.6°
Sets 19:08:29 0° 355° (N) 3,034 ? -12.1°
